Tracking 17842 objects as of 30-August-2016
HD Live streaming from Space Station
objects crossing your sky now

INSAT 1C

Track INSAT 1C now!
INSAT 1C is classified as:


NORAD ID: 19330
Int'l Code: 1988-063A
Perigee: 35,757.3 km
Apogee: 35,810.2 km
Inclination: 15.0 °
Period: 1,435.6 minutes
Semi major axis: 42154 km
RCS: 1.9952 m2 (large)
Launch date: July 21, 1988
Source: India (IND)
Launch site: FRENCH GUIANA (FRGUI)
Your satellite tracking list
Your tracking list is empty





NASA's NSSDC Master Catalog

Two Line Element Set (TLE):
1 19330U 88063A   16241.91136657 -.00000036 +00000-0 +00000-0 0  9993
2 19330 014.9794 359.2799 0006275 127.3865 242.6342 01.00307577084452
Source of the keplerian elements: AFSPC

N2YO: 461